Temp
67 66 67 67 69 72 72 71 70 68 67 65 63 62 60 59 61 59 58 59 56 55 57 56 56 58 57 57 56 57 55 55 51 56 58 55 52 51 53 53 52 51 44
66 65 65 67 70 70 71 71 69 68 67 67 64 61 60 60 57 58 56 57 55 55 55 56 56 58 55 56 56 55 55 55 53 51 53 52 50 52 51 49 52 54 52
65 66 67 68 70 70 70 70 71 69 67 66 64 61 59 58 58 57 56 54 54 54 52 55 55 56 54 55 55 55 55 55 54 51 51 54 53 52 50 50 50 50 52
64 66 68 69 68 70 71 71 70 70 67 64 62 61 60 59 60 55 51 49 53 50 50 51 53 56 54 53 54 53 54 53 52 50 49 50 50 51 49 47 47 50 49
64 65 66 65 66 69 70 70 70 70 67 64 63 60 58 60 55 48 47 46 45 47 48 52 53 55 51 52 56 54 53 51 49 46 45 47 47 46 44 48 45 47 48
66 65 66 66 65 66 67 67 67 67 64 63 62 58 56 54 47 43 47 45 45 45 47 50 50 49 46 43 42 41 43 50 47 44 43 42 46 47 47 45 44 42 39
68 68 67 67 66 65 66 66 65 64 62 57 57 55 53 54 43 42 42 45 44 47 46 49 48 52 46 45 40 38 38 38 34 42 42 42 42 47 47 44 43 43 42
68 68 70 68 65 65 65 64 64 60 58 58 56 56 56 55 42 42 40 45 44 46 46 46 46 47 46 42 41 39 41 43 41 42 43 45 45 47 46 46 44 43 43
67 67 68 67 64 62 61 61 62 60 58 57 57 56 55 52 42 41 40 43 46 45 46 47 47 45 41 42 39 38 39 43 41 39 36 35 35 36 37 42 40 38 35
61 65 68 66 64 62 62 62 62 61 60 60 58 58 52 54 44 40 40 47 46 45 45 45 40 42 38 37 38 39 38 40 39 36 34 35 34 39 34 38 40 36 37
62 63 66 68 67 69 67 65 62 62 62 60 60 60 59 56 55 39 39 47 47 44 40 37 36 35 36 36 35 35 37 38 34 36 35 37 40 41 41 38 40 39 36
69 68 69 69 67 66 64 63 63 62 60 58 57 56 58 60 45 39 39 39 44 38 36 35 34 36 34 33 33 35 34 33 36 35 36 36 37 38 40 42 41 42 43
66 66 65 65 64 65 63 62 60 60 58 55 54 53 52 53 53 39 38 38 37 37 36 35 34 34 33 32 32 32 32 33 33 33 33 33 35 37 40 38 39 36 35
65 64 61 60 61 62 63 62 59 57 56 54 51 50 51 50 49 49 42 39 37 35 33 33 33 33 33 33 32 32 32 33 33 33 33 33 35 34 33 36 33 33 31
64 62 62 61 62 61 62 61 60 61 55 56 56 53 49 46 47 46 42 37 36 36 33 33 31 31 31 32 32 32 32 32 32 33 33 32 33 33 33 35 33 33 30
63 64 62 62 62 63 61 59 44 41 40 38 37 40 49 41 40 39 37 37 37 34 33 32 31 32 32 33 32 32 32 32 33 33 33 33 32 32 33 33 34 32 30
62 61 56 57 58 56 56 55 54 46 39 38 37 36 36 36 37 37 37 36 35 33 33 32 32 32 33 33 33 33 33 34 34 33 33 32 32 32 33 33 32 32 31
56 38 53 52 53 55 56 53 53 51 48 46 37 38 36 36 36 36 36 35 33 33 33 33 33 33 34 34 33 33 33 33 33 32 32 32 32 33 32 32 33 31 31
56 54 54 53 50 47 52 52 52 50 44 42 43 40 38 36 35 35 35 34 33 31 32 33 34 33 35 34 34 34 33 33 33 32 32 32 32 32 32 33 33 31 30
45 38 41 50 51 51 51 50 49 45 41 40 39 37 39 37 34 33 33 33 32 32 33 34 34 34 34 34 34 33 33 32 33 32 32 32 32 33 32 32 31 30 29
50 47 38 50 50 49 49 47 47 44 41 39 37 34 32 36 34 33 32 33 33 34 34 35 35 35 35 34 34 34 33 33 34 33 34 33 32 31 32 32 31 31 30
50 49 49 48 49 46 47 47 45 43 42 38 36 35 33 36 35 34 34 33 33 34 35 35 35 35 35 35 35 34 34 33 33 35 34 33 33 32 32 31 30 29 29
51 49 48 47 46 41 43 44 41 40 37 36 35 34 35 35 34 34 33 33 35 35 35 35 35 36 37 38 39 38 35 34 34 34 32 32 32 31 31 30 30 29 29
49 48 47 44 42 42 38 37 38 35 35 34 33 34 34 34 33 33 33 33 33 33 34 35 37 37 36 33 36 37 37 36 36 34 33 32 31 31 30 30 29 28 28
44 43 42 41 37 35 35 35 34 34 33 33 33 33 33 33 33 32 33 33 33 33 32 34 35 32 32 31 33 33 31 31 32 32 32 31 30 29 29 29 28 28 27
45 44 42 39 35 34 33 33 33 33 33 32 32 33 34 34 33 32 33 33 33 33 33 33 31 31 31 31 31 31 30 30 30 30 30 30 28 28 28 27 26 26 25
MSLP
1012.51 1013.63 1014.26 1014.94 1015.56 1015.99 1016.46 1017.16 1017.99 1018.65 1019.22 1019.93 1020.76 1021.44 1022.19 1022.78 1022.96 1023.45 1023.88 1024.18 1024.70 1024.91 1025.20 1025.62 1025.92 1026.12 1026.50 1026.72 1026.81 1026.71 1026.70 1026.70 1026.42 1026.10 1026.63 1027.84 1028.72 1029.00 1029.11 1029.41 1029.59 1029.69 1030.57
1011.87 1013.01 1013.35 1013.99 1014.62 1015.08 1015.60 1016.14 1017.19 1017.80 1018.44 1019.00 1019.93 1020.75 1021.40 1021.76 1022.20 1022.92 1023.49 1023.91 1024.37 1024.73 1024.86 1025.13 1025.41 1025.69 1025.89 1025.90 1026.43 1026.72 1026.78 1026.56 1026.63 1026.62 1027.19 1027.69 1028.70 1028.69 1029.14 1029.45 1029.19 1029.25 1029.59
1011.46 1012.00 1012.42 1012.92 1013.55 1014.08 1014.80 1015.45 1016.21 1017.14 1017.71 1018.44 1019.21 1019.89 1020.39 1020.99 1021.70 1022.42 1022.97 1023.58 1023.87 1024.24 1024.55 1024.41 1024.71 1025.02 1025.35 1025.46 1025.89 1026.15 1026.35 1026.64 1026.58 1026.58 1026.79 1027.41 1027.41 1028.31 1028.85 1028.97 1028.91 1029.07 1029.18
1010.74 1010.91 1011.36 1011.92 1012.44 1013.28 1014.14 1014.82 1015.38 1016.16 1016.86 1017.97 1018.44 1018.92 1019.39 1020.12 1020.79 1021.57 1022.42 1023.01 1023.12 1023.84 1024.02 1024.16 1024.09 1024.23 1024.56 1024.91 1025.17 1025.63 1025.86 1026.14 1026.47 1026.92 1027.00 1027.35 1027.80 1027.89 1028.55 1028.57 1028.18 1028.21 1028.58
1009.65 1009.97 1010.11 1011.03 1011.87 1012.64 1013.22 1013.85 1014.40 1015.11 1015.80 1016.93 1017.60 1018.18 1018.99 1019.46 1019.88 1020.65 1021.30 1022.24 1022.85 1023.11 1023.34 1023.29 1023.43 1023.49 1024.03 1024.36 1024.68 1025.08 1025.66 1026.00 1026.49 1026.84 1027.33 1027.37 1027.70 1028.00 1028.15 1028.13 1028.25 1028.11 1028.21
1008.26 1008.47 1009.57 1010.39 1011.21 1011.75 1012.25 1012.80 1013.37 1013.86 1014.66 1015.76 1016.40 1017.37 1017.86 1018.34 1018.98 1019.59 1020.80 1021.37 1021.74 1022.21 1022.32 1022.84 1022.85 1022.82 1023.43 1024.02 1024.78 1025.60 1025.95 1026.17 1026.82 1027.48 1027.68 1027.53 1027.61 1027.95 1028.00 1028.42 1028.36 1028.43 1028.21
1007.38 1007.82 1008.63 1009.60 1010.23 1011.17 1011.81 1012.22 1012.62 1013.20 1014.04 1014.96 1015.75 1016.56 1017.13 1017.58 1018.39 1019.46 1019.76 1020.48 1020.96 1021.06 1021.40 1021.60 1021.96 1022.11 1022.63 1023.72 1024.75 1025.48 1026.05 1026.39 1027.18 1027.81 1027.75 1027.79 1027.97 1027.95 1028.10 1028.40 1028.33 1028.36 1028.28
1006.50 1007.25 1007.76 1008.45 1009.32 1010.13 1010.92 1011.43 1012.11 1012.92 1013.67 1014.38 1015.23 1015.92 1016.42 1016.92 1017.67 1018.59 1019.07 1019.58 1019.97 1020.09 1020.21 1020.48 1020.91 1021.59 1022.06 1023.09 1024.35 1025.13 1025.74 1025.86 1026.70 1027.14 1027.44 1027.74 1028.04 1028.16 1028.29 1028.34 1028.60 1028.59 1028.65
1006.60 1006.72 1007.22 1007.94 1008.91 1009.73 1010.35 1010.96 1011.72 1012.54 1013.05 1013.52 1014.19 1014.74 1015.29 1016.06 1016.93 1017.58 1018.77 1019.33 1019.12 1018.82 1019.37 1019.88 1020.49 1020.90 1021.41 1022.53 1024.16 1025.21 1025.30 1025.58 1026.06 1026.80 1027.87 1028.30 1028.94 1029.32 1029.36 1028.85 1028.55 1028.63 1028.61
1006.35 1006.89 1007.11 1007.85 1008.57 1009.08 1009.63 1010.15 1010.88 1011.40 1011.92 1012.65 1013.21 1013.67 1014.28 1015.01 1015.58 1016.59 1017.79 1018.21 1017.97 1018.56 1019.02 1019.34 1020.02 1021.03 1021.64 1022.87 1024.15 1024.13 1025.50 1025.42 1026.13 1026.89 1027.77 1027.91 1028.62 1028.89 1029.34 1029.38 1028.92 1028.51 1028.40
1005.15 1006.15 1006.95 1007.46 1007.69 1007.91 1008.48 1009.18 1009.92 1010.65 1011.20 1011.82 1012.26 1012.80 1013.30 1013.75 1014.34 1015.35 1016.64 1017.22 1017.30 1017.79 1018.46 1019.22 1020.00 1020.89 1022.25 1022.65 1023.24 1024.15 1024.32 1025.58 1026.35 1026.66 1027.35 1026.94 1026.97 1027.48 1027.98 1028.76 1028.70 1028.45 1028.13
1005.46 1006.03 1006.79 1007.25 1007.71 1008.17 1008.58 1009.11 1009.72 1010.32 1010.84 1011.42 1011.84 1012.09 1012.37 1012.76 1013.51 1014.64 1015.70 1016.37 1016.84 1017.44 1018.22 1018.91 1019.55 1020.30 1021.37 1022.64 1023.50 1023.68 1024.28 1025.40 1025.79 1025.71 1026.16 1026.05 1026.13 1026.58 1026.93 1027.24 1027.57 1027.64 1027.79
1006.40 1006.68 1007.12 1007.38 1007.91 1008.12 1008.68 1009.10 1009.65 1010.19 1010.83 1011.27 1011.69 1012.00 1012.26 1012.62 1013.11 1013.89 1015.07 1015.95 1016.78 1017.38 1017.67 1018.21 1018.96 1020.36 1020.73 1021.59 1022.54 1023.32 1023.74 1024.78 1025.04 1025.17 1025.51 1025.81 1026.20 1026.63 1026.83 1027.09 1027.33 1027.82 1028.22
1006.32 1006.99 1007.29 1007.70 1008.00 1008.35 1008.85 1009.32 1009.64 1010.22 1010.63 1011.24 1011.78 1011.94 1011.98 1012.25 1012.94 1013.80 1014.98 1015.83 1016.48 1017.08 1017.66 1018.40 1018.99 1020.06 1020.67 1021.12 1022.02 1022.93 1023.01 1023.66 1024.19 1024.80 1025.05 1025.39 1025.82 1026.41 1026.61 1026.80 1027.35 1027.81 1028.16
1006.62 1007.13 1007.23 1007.91 1008.17 1008.51 1009.01 1009.30 1009.58 1009.97 1010.77 1011.16 1011.39 1011.53 1011.84 1012.36 1012.74 1013.15 1014.06 1015.01 1015.60 1016.27 1017.44 1018.14 1019.20 1019.92 1020.22 1020.61 1021.13 1021.67 1022.26 1022.88 1023.59 1024.24 1024.71 1025.01 1025.37 1025.90 1026.08 1026.29 1026.79 1027.16 1027.39
1006.92 1007.45 1007.74 1008.06 1008.50 1008.82 1009.11 1009.43 1010.03 1010.66 1011.20 1011.57 1011.96 1012.18 1012.18 1012.52 1012.83 1013.42 1013.93 1014.63 1015.40 1016.06 1016.88 1017.34 1017.99 1018.81 1019.16 1019.61 1020.12 1020.76 1021.29 1021.99 1022.72 1023.47 1023.95 1024.31 1024.76 1025.07 1025.27 1025.58 1026.04 1026.41 1026.59
1007.25 1007.99 1008.69 1008.74 1009.15 1009.46 1009.60 1009.98 1010.46 1011.43 1011.70 1012.15 1012.47 1012.77 1012.85 1013.01 1013.26 1013.52 1013.93 1014.46 1015.22 1016.19 1016.66 1017.21 1017.44 1017.96 1018.45 1018.85 1019.25 1019.73 1020.42 1021.17 1021.93 1022.60 1023.15 1023.66 1024.07 1024.36 1024.51 1024.71 1025.10 1025.48 1025.75
1008.36 1008.95 1009.23 1009.65 1009.80 1009.79 1010.19 1010.74 1011.01 1011.31 1011.71 1012.27 1012.85 1012.95 1013.00 1013.11 1013.26 1013.45 1013.79 1014.46 1015.33 1016.00 1016.33 1016.78 1017.13 1017.44 1017.86 1018.29 1018.71 1019.18 1019.82 1020.57 1021.29 1021.92 1022.48 1022.89 1023.27 1023.51 1023.79 1023.96 1024.22 1024.62 1024.94
1008.94 1009.33 1009.65 1009.85 1010.36 1010.76 1010.75 1010.88 1011.19 1011.61 1012.41 1012.82 1012.94 1012.96 1013.32 1013.52 1013.51 1013.75 1014.07 1014.50 1015.01 1015.40 1015.85 1016.49 1016.81 1017.09 1017.40 1017.91 1018.37 1018.90 1019.46 1020.06 1020.72 1021.31 1021.80 1022.20 1022.57 1022.89 1023.09 1023.26 1023.54 1024.00 1024.38
1009.75 1009.94 1010.09 1010.36 1010.65 1010.83 1011.20 1011.46 1011.67 1012.31 1012.88 1013.24 1013.49 1013.76 1013.73 1013.78 1014.02 1014.25 1014.49 1014.86 1015.38 1015.42 1015.60 1016.22 1016.63 1016.96 1017.31 1017.79 1018.29 1018.78 1019.29 1019.81 1020.27 1020.78 1021.23 1021.64 1022.02 1022.33 1022.53 1022.74 1023.10 1023.42 1023.71
1009.93 1010.46 1010.42 1010.66 1011.03 1011.45 1011.74 1012.03 1012.29 1012.80 1013.21 1013.64 1014.16 1014.62 1014.79 1014.56 1014.59 1014.72 1014.73 1015.35 1015.62 1015.63 1015.87 1016.32 1016.71 1017.10 1017.47 1017.86 1018.30 1018.70 1019.09 1019.53 1019.96 1020.42 1020.71 1021.10 1021.55 1021.86 1022.09 1022.38 1022.62 1022.89 1023.17
1010.22 1010.58 1010.99 1011.36 1011.81 1012.34 1012.46 1012.65 1013.09 1013.42 1013.72 1014.14 1014.68 1015.02 1015.02 1014.97 1015.27 1015.50 1015.27 1015.90 1015.86 1016.08 1016.40 1016.73 1017.03 1017.33 1017.61 1017.92 1018.19 1018.51 1018.87 1019.37 1019.71 1019.96 1020.30 1020.70 1021.06 1021.40 1021.68 1021.88 1022.12 1022.39 1022.64
1010.54 1011.09 1011.60 1012.19 1012.68 1013.02 1013.36 1013.62 1013.87 1014.27 1014.78 1015.16 1015.48 1015.55 1015.51 1014.89 1015.46 1015.96 1016.08 1016.41 1016.42 1016.67 1016.86 1017.05 1017.23 1017.42 1017.55 1017.78 1017.96 1018.36 1018.84 1019.22 1019.58 1019.93 1020.27 1020.55 1020.79 1021.00 1021.21 1021.31 1021.49 1021.71 1021.91
1011.13 1011.71 1012.41 1013.05 1013.35 1013.73 1014.44 1014.63 1014.80 1015.15 1015.46 1015.63 1015.58 1015.96 1015.82 1016.04 1016.32 1016.49 1016.60 1016.84 1016.99 1017.26 1017.43 1017.44 1017.44 1017.61 1017.88 1018.41 1018.59 1018.72 1018.95 1019.31 1019.58 1019.93 1020.18 1020.38 1020.53 1020.67 1020.84 1020.86 1021.00 1021.22 1021.45
1012.10 1012.60 1013.13 1013.64 1014.15 1014.71 1015.10 1015.36 1015.76 1016.12 1016.19 1016.27 1016.33 1016.44 1016.26 1016.55 1016.95 1017.11 1017.14 1017.29 1017.58 1017.75 1017.98 1017.95 1017.98 1018.43 1018.55 1018.84 1018.93 1019.16 1019.63 1019.84 1020.04 1020.22 1020.31 1020.45 1020.56 1020.73 1020.87 1020.90 1021.02 1021.13 1021.30
1012.59 1013.18 1013.75 1014.36 1015.12 1015.50 1015.73 1016.16 1016.30 1016.34 1016.54 1016.84 1016.99 1016.84 1016.77 1016.96 1017.41 1017.58 1017.67 1017.77 1017.91 1018.06 1018.20 1018.38 1018.67 1018.78 1019.01 1019.16 1019.36 1019.60 1019.88 1020.15 1020.36 1020.55 1020.58 1020.51 1020.61 1020.66 1020.77 1020.85 1020.95 1021.03 1021.03
Wind_Speed
18 18 17 17 18 17 15 15 15 14 14 15 17 16 15 14 14 12 12 11 13 10 10 9 10 9 6 6 6 6 6 5 6 2 2 7 5 6 4 3 3 3 9
19 20 21 18 19 18 17 17 16 16 16 16 16 16 16 17 13 14 14 12 12 12 12 11 12 9 11 9 7 8 7 7 6 8 8 7 7 6 4 4 3 2 1
18 19 18 19 19 19 18 17 17 17 16 16 16 16 17 15 15 14 13 13 12 11 10 13 11 13 12 9 10 8 7 7 7 6 5 4 4 4 5 6 4 3 5
19 19 20 20 19 17 17 17 17 17 17 17 16 17 16 16 16 14 12 12 12 11 9 8 12 14 13 11 11 11 9 8 8 5 6 5 5 5 4 5 4 4 2
19 19 20 17 16 17 18 18 17 18 17 17 17 15 14 15 11 16 16 13 12 12 12 13 13 14 13 13 10 11 10 8 6 4 4 5 6 6 6 5 3 3 3
20 20 17 16 17 17 17 18 18 18 17 17 16 16 16 12 16 20 15 14 14 15 14 14 12 14 9 10 4 6 6 8 8 3 4 5 8 6 4 4 4 4 3
18 16 17 18 18 18 15 15 15 15 14 14 14 14 15 15 16 21 21 13 14 16 15 14 13 10 13 9 7 4 5 7 6 1 6 2 6 7 5 6 5 5 4
15 16 18 17 15 15 15 15 13 10 14 13 14 17 16 14 17 23 24 17 13 16 16 16 14 13 13 11 10 8 7 8 7 5 4 3 4 7 4 6 6 5 4
12 13 10 9 12 12 13 13 12 13 13 13 14 16 15 14 18 24 21 16 17 18 14 14 15 11 17 18 7 8 9 10 11 9 7 7 5 3 4 4 6 5 5
11 8 8 10 13 14 14 14 13 12 11 10 12 14 18 17 16 23 22 13 17 11 12 12 11 6 18 17 10 10 9 9 9 8 7 8 6 7 5 7 7 7 6
5 8 12 15 15 15 12 9 8 9 9 11 13 13 16 14 13 24 28 16 12 10 8 5 5 20 18 20 14 10 10 8 7 8 9 9 11 10 8 8 9 8 6
8 9 10 9 7 7 9 7 9 10 10 9 10 10 8 10 13 20 25 27 12 5 7 6 11 23 21 20 17 13 14 9 8 7 7 6 5 5 6 8 10 9 6
10 11 11 11 9 8 8 9 8 8 7 7 5 6 5 5 5 11 23 22 20 5 7 13 21 22 23 20 21 18 14 9 7 7 7 6 5 6 8 6 4 3 3
10 10 8 8 8 7 5 5 5 6 5 5 5 5 5 3 4 5 7 10 15 10 9 11 13 16 16 13 12 13 9 9 8 8 7 6 6 5 6 6 5 5 5
9 8 8 7 6 5 5 5 4 5 3 5 5 4 3 3 3 7 10 8 9 10 9 7 8 9 9 9 10 11 9 9 9 8 7 7 7 7 7 7 6 7 8
9 7 5 5 4 3 3 2 3 0 7 8 7 2 4 2 5 7 12 12 11 14 8 8 10 9 10 10 10 10 10 11 10 9 8 8 8 8 8 7 7 8 9
9 8 4 5 4 3 3 2 3 4 7 5 5 6 3 5 5 9 11 13 12 12 7 6 7 8 8 8 9 9 11 10 10 9 8 8 7 8 8 8 8 8 8
10 7 6 4 5 4 5 3 3 4 5 5 3 4 6 4 7 9 9 10 6 7 5 5 6 6 7 7 8 8 7 8 9 8 8 8 8 8 7 8 8 9 9
7 6 5 5 5 3 4 4 4 5 5 5 5 4 6 8 4 3 11 3 5 5 4 4 4 4 6 5 6 6 7 7 8 8 8 8 7 7 8 8 8 10 10
8 6 4 4 5 6 5 5 5 6 5 5 5 5 5 4 3 3 4 3 3 3 4 4 4 4 5 5 5 5 6 6 7 7 7 6 6 7 8 8 7 8 9
6 6 4 6 6 6 5 5 5 4 4 4 5 5 6 4 3 3 3 2 2 3 4 4 4 4 4 4 4 5 5 5 6 7 7 7 7 7 7 8 8 8 9
6 6 6 7 6 6 5 5 5 5 5 5 4 4 3 3 3 2 4 3 4 4 3 3 3 4 4 5 5 5 5 4 4 5 5 5 6 7 7 8 8 8 8
7 7 7 6 5 4 6 6 4 5 6 5 4 3 3 5 4 4 4 3 3 3 3 3 4 4 4 3 3 5 4 5 6 5 5 6 7 7 7 8 9 9 9
8 7 7 6 5 7 5 4 5 6 4 3 3 3 4 5 4 5 5 4 5 4 4 2 3 2 6 4 0 1 0 1 2 3 4 5 5 6 7 7 6 7 7
7 7 5 6 6 5 4 5 4 3 4 4 4 3 4 5 5 5 4 4 4 3 4 2 2 5 5 5 3 2 5 4 1 3 3 5 6 6 7 7 8 8 8
6 7 6 6 4 3 3 3 3 4 4 4 3 4 4 5 5 4 4 4 4 4 4 3 4 6 5 2 3 1 1 3 3 4 4 5 5 6 6 8 9 9 10
Wind_Direction
193 191 199 202 202 208 200 193 200 191 191 184 191 190 192 194 198 198 199 200 196 197 210 200 214 223 222 218 221 229 230 230 249 141 170 155 209 234 217 240 251 289 159
189 196 200 201 204 203 206 198 195 198 197 191 192 192 192 203 195 199 201 201 199 212 195 214 215 216 220 217 217 226 228 219 239 245 178 191 213 216 250 270 264 284 280
201 201 199 202 202 205 204 203 197 204 201 203 194 200 200 198 199 203 195 201 205 208 213 206 215 214 217 218 219 224 224 233 216 246 248 209 201 210 228 236 229 251 243
202 202 201 202 204 205 205 204 207 202 199 207 206 201 204 197 201 196 192 201 202 205 225 219 210 221 215 212 217 220 223 221 221 226 234 238 215 213 225 266 223 205 264
202 203 208 200 203 208 208 207 207 206 200 202 209 207 205 209 198 180 190 197 192 203 215 218 224 226 221 218 217 212 220 217 228 206 236 245 233 218 224 234 245 262 257
203 203 202 197 201 214 211 208 206 208 196 204 206 208 209 205 195 185 193 191 191 205 213 216 227 211 196 172 169 67 45 234 212 233 246 234 242 248 241 245 261 266 275
204 201 194 201 201 207 215 213 213 210 191 195 208 207 213 214 180 194 191 192 198 210 208 210 216 218 193 184 165 145 157 137 115 169 250 268 286 260 256 246 244 257 273
200 204 202 198 197 198 206 213 208 191 194 210 208 215 221 217 189 197 194 204 207 213 213 209 208 212 190 170 171 196 214 201 201 211 237 283 269 297 251 252 250 271 281
204 204 207 191 195 195 205 205 204 204 205 207 215 220 215 220 201 198 191 208 219 218 211 212 210 206 175 168 165 187 189 207 170 169 88 84 66 55 31 299 227 240 262
197 227 203 197 200 203 207 207 207 209 207 200 215 216 214 225 200 192 192 211 223 222 216 220 204 181 148 148 179 192 208 188 153 157 199 216 222 239 222 252 250 243 255
158 202 215 211 205 206 200 193 182 197 206 206 219 222 225 221 221 187 194 215 223 221 215 176 128 129 141 161 170 197 187 166 181 195 198 205 211 213 208 212 228 239 247
179 177 193 183 176 186 179 177 189 203 206 216 220 227 226 230 207 186 195 206 222 192 186 154 150 155 156 171 186 200 155 166 207 214 207 202 197 212 227 214 204 220 239
162 165 163 162 166 172 176 177 183 197 201 219 224 230 225 216 237 170 194 204 217 193 166 176 166 173 173 181 188 183 170 188 201 195 195 197 201 218 233 240 268 45 355
140 142 127 139 149 153 161 173 177 196 206 224 230 230 237 210 179 173 184 198 205 205 167 167 172 180 188 192 184 187 184 188 190 204 198 192 188 202 218 219 210 219 239
131 128 133 125 152 142 174 182 192 207 218 228 232 230 233 204 220 184 166 181 191 195 160 153 166 182 188 187 184 187 183 186 192 200 198 191 191 209 216 206 225 228 233
132 120 105 110 118 139 153 168 145 210 35 18 8 354 301 102 157 167 173 191 184 156 164 179 186 194 195 189 184 179 183 186 194 199 199 197 205 208 208 203 216 223 237
111 114 113 94 81 59 42 9 321 78 59 25 357 340 293 295 176 188 187 187 167 151 192 193 194 194 197 187 183 180 183 190 189 192 194 199 207 213 214 216 214 218 229
94 58 80 69 62 38 32 15 360 354 359 357 92 38 28 296 191 187 188 140 150 182 190 188 189 186 189 187 183 179 173 173 182 188 195 201 204 209 215 225 224 226 234
98 89 91 82 71 76 41 28 23 21 20 354 350 31 31 38 15 199 154 148 167 176 168 180 172 176 179 173 167 167 172 181 187 189 196 203 202 210 221 228 230 231 234
86 74 52 88 71 54 45 35 31 41 17 16 20 13 6 11 41 59 65 82 142 154 161 161 150 155 157 162 161 167 173 180 181 185 192 197 204 213 230 233 227 232 229
108 93 68 72 63 52 44 41 33 47 34 43 43 25 6 12 72 94 101 93 117 116 121 120 118 123 128 139 155 163 173 178 186 190 207 209 209 221 225 227 230 234 240
90 79 70 66 62 52 43 49 38 31 30 59 44 43 360 62 55 85 95 84 78 85 98 117 133 146 148 153 169 170 168 172 213 210 209 219 217 222 228 229 230 230 239
91 88 81 71 79 95 46 46 50 53 54 40 41 31 12 67 69 76 85 93 91 91 96 104 125 149 152 152 166 159 204 192 205 206 222 224 225 230 229 233 231 234 242
88 88 86 77 50 71 75 44 73 62 75 76 70 63 68 67 69 81 87 82 85 82 62 76 105 113 116 103 221 110 198 197 192 180 223 245 250 250 254 249 243 252 267
89 91 92 71 72 67 61 74 68 69 64 59 59 69 74 82 77 71 75 77 88 101 99 87 82 96 82 62 110 109 78 86 332 340 243 251 256 270 282 285 283 277 270
93 87 82 85 95 103 89 89 91 79 78 77 67 56 66 85 83 88 90 94 98 88 94 85 77 77 110 156 172 137 185 227 231 235 277 271 271 266 267 267 266 270 266